Heute – Wetterdaten der letzten 3 Stunden im 5 Min. Intervall

Wetterdaten der letzten 3 Stunden im 5 Min. Intervall
DatumAussentemperaturLuftdruckLuftfeuchtigkeitWindstärke Regen
17.10.21, 14:55 13.9 °C 1020.3 hPa 75 % 0.0 km/h 0.0 mm
17.10.21, 14:50 13.9 °C 1020.3 hPa 73 % 0.0 km/h 0.0 mm
17.10.21, 14:45 13.8 °C 1020.4 hPa 71 % 0.0 km/h 0.0 mm
17.10.21, 14:40 13.8 °C 1020.5 hPa 70 % 3.2 km/h 0.0 mm
17.10.21, 14:35 13.8 °C 1020.5 hPa 72 % 0.0 km/h 0.0 mm
17.10.21, 14:30 13.8 °C 1020.5 hPa 72 % 0.0 km/h 0.0 mm
17.10.21, 14:25 13.7 °C 1020.6 hPa 73 % 0.0 km/h 0.0 mm
17.10.21, 14:20 13.6 °C 1020.6 hPa 74 % 1.8 km/h 0.0 mm
17.10.21, 14:15 13.4 °C 1020.7 hPa 73 % 0.0 km/h 0.0 mm
17.10.21, 14:10 13.5 °C 1020.6 hPa 72 % 0.0 km/h 0.0 mm
17.10.21, 14:05 13.6 °C 1020.7 hPa 72 % 0.0 km/h 0.0 mm
17.10.21, 13:55 13.4 °C 1020.8 hPa 73 % 0.0 km/h 0.0 mm
17.10.21, 13:50 13.3 °C 1020.8 hPa 72 % 1.8 km/h 0.0 mm
17.10.21, 13:45 13.3 °C 1021.0 hPa 72 % 0.0 km/h 0.0 mm
17.10.21, 13:40 13.2 °C 1021.1 hPa 72 % 1.8 km/h 0.0 mm
17.10.21, 13:35 13.2 °C 1021.1 hPa 71 % 1.8 km/h 0.0 mm
17.10.21, 13:30 13.1 °C 1021.0 hPa 71 % 0.0 km/h 0.0 mm
17.10.21, 13:25 13.1 °C 1021.1 hPa 70 % 0.0 km/h 0.0 mm
17.10.21, 13:20 13.3 °C 1021.1 hPa 69 % 0.0 km/h 0.0 mm
17.10.21, 13:15 13.3 °C 1021.2 hPa 69 % 0.0 km/h 0.0 mm
17.10.21, 13:10 13.3 °C 1021.2 hPa 69 % 3.2 km/h 0.0 mm
17.10.21, 13:05 13.2 °C 1021.1 hPa 69 % 1.8 km/h 0.0 mm
17.10.21, 13:00 13.2 °C 1021.2 hPa 68 % 0.0 km/h 0.0 mm
17.10.21, 12:55 13.3 °C 1021.2 hPa 69 % 0.0 km/h 0.0 mm
17.10.21, 12:50 13.3 °C 1021.0 hPa 70 % 0.0 km/h 0.0 mm
17.10.21, 12:45 13.2 °C 1021.0 hPa 70 % 0.0 km/h 0.0 mm
17.10.21, 12:40 13.1 °C 1021.1 hPa 73 % 0.0 km/h 0.0 mm
17.10.21, 12:35 12.8 °C 1021.1 hPa 73 % 1.8 km/h 0.0 mm
17.10.21, 12:30 12.7 °C 1021.0 hPa 73 % 10.1 km/h 0.0 mm
17.10.21, 12:25 12.5 °C 1020.9 hPa 74 % 3.2 km/h 0.0 mm
17.10.21, 12:20 12.2 °C 1021.0 hPa 74 % 1.8 km/h 0.0 mm
17.10.21, 12:15 11.9 °C 1021.0 hPa 76 % 0.0 km/h 0.0 mm
17.10.21, 12:10 11.7 °C 1021.0 hPa 77 % 0.0 km/h 0.0 mm
17.10.21, 12:05 11.6 °C 1021.1 hPa 77 % 0.0 km/h 0.0 mm